Weather History for KLNS - September, 2013

Change the Weather History Date:

Wednesday, September 11, 2013

  Actual Average Record
Temperature  
Mean Temperature 80 °F -  
Max Temperature 93 °F 80 °F 96 °F (1983)
Min Temperature 68 °F 57 °F 45 °F (2012)
Cooling Degree Days 16    
Growing Degree Days 30 (Base 50)    
Moisture  
Dew Point 70 °F    
Average Humidity 82    
Maximum Humidity 100    
Minimum Humidity 49    
Precipitation  
Precipitation 0.00 in - - ()
Sea Level Pressure  
Sea Level Pressure 30.10 in    
Wind  
Wind Speed 2 mph (SSW)    
Max Wind Speed 13 mph    
Max Gust Speed 18 mph    
Visibility 4 miles    
Events Fog    
Averages and records for this station are not official NWS values.
T = Trace of Precipitation, MM = Missing Value Source: NWS Daily Summary

Daily Weather History Graph

Daily Weather History Graph

Search for Another Location

Airport or City:

Trip Planner

Search our weather history database for the weather conditions in past years. The results will help you decide how hot, cold, wet, or windy it might be!

Date:

Astronomy

Sep. 11, 2013 Rise Set
Actual Time 6:42 AM EDT 7:20 PM EDT
Civil Twilight 6:15 AM EDT 7:47 PM EDT
Nautical Twilight 5:42 AM EDT 8:19 PM EDT
Astronomical Twilight 5:09 AM EDT 8:52 PM EDT
Moon 1:08 PM EDT (9/11) 11:13 PM EDT (9/11)
Length of Visible Light 13h 32m
Length of Day
12h 37m
Waxing Crescent, 38% of the Moon is Illuminated
Sep 11
Waxing Crescent
Sep 12
First Quarter
Sep 19
Full
Sep 26
Last Quarter
Oct 4
New

Hourly Weather History & Observations

Time (EDT) Temp. Heat Index Dew Point Humidity Pressure Visibility Wind Dir Wind Speed Gust Speed Precip Events Conditions
12:53 AM 73.0 °F - 70.0 °F 90% 30.13 in 3.0 mi Calm Calm - N/A   Clear
1:25 AM 73.4 °F - 71.6 °F 94% 30.14 in 2.5 mi Calm Calm - N/A   Clear
1:53 AM 72.0 °F - 70.0 °F 93% 30.12 in 2.0 mi Calm Calm - N/A   Clear
2:39 AM 71.6 °F - 69.8 °F 94% 30.12 in 1.8 mi Calm Calm - N/A   Clear
2:53 AM 72.0 °F - 70.0 °F 93% 30.11 in 1.8 mi Calm Calm - N/A   Clear
3:00 AM 71.6 °F - 69.8 °F 94% 30.11 in 2.5 mi Calm Calm - N/A   Clear
3:53 AM 70.0 °F - 68.0 °F 93% 30.09 in 2.0 mi Calm Calm - N/A   Clear
4:01 AM 69.8 °F - 69.8 °F 100% 30.11 in 1.2 mi SE 3.5 mph - N/A   Clear
4:53 AM 69.1 °F - 68.0 °F 96% 30.10 in 1.8 mi Calm Calm - N/A   Clear
5:36 AM 69.8 °F - 69.8 °F 100% 30.12 in 0.8 mi Calm Calm - N/A   Clear
5:45 AM 69.8 °F - 68.0 °F 94% 30.12 in 1.2 mi Calm Calm - N/A   Clear
5:53 AM 69.1 °F - 68.0 °F 96% 30.12 in 1.0 mi Calm Calm - N/A   Clear
6:29 AM 69.8 °F - 68.0 °F 94% 30.14 in 2.5 mi Calm Calm - N/A   Clear
6:40 AM 69.8 °F - 69.8 °F 100% 30.14 in 1.2 mi Calm Calm - N/A   Clear
6:47 AM 69.8 °F - 68.0 °F 94% 30.14 in 0.8 mi Calm Calm - N/A   Mist
6:53 AM 69.1 °F - 66.9 °F 93% 30.13 in 0.5 mi Calm Calm - N/A Fog Fog
7:00 AM 68.0 °F - 66.2 °F 94% 30.14 in 0.8 mi Calm Calm - N/A   Mist
7:13 AM 69.8 °F - 68.0 °F 94% 30.15 in 0.2 mi NE 3.5 mph - N/A Fog Fog
7:27 AM 69.8 °F - 69.8 °F 100% 30.15 in 0.8 mi Calm Calm - N/A   Mist
7:39 AM 71.6 °F - 69.8 °F 94% 30.15 in 0.8 mi Calm Calm - N/A   Clear
7:53 AM 73.0 °F - 71.1 °F 93% 30.14 in 1.0 mi Calm Calm - N/A   Clear
8:51 AM 75.2 °F - 71.6 °F 89% 30.15 in 2.0 mi Calm Calm - N/A   Clear
8:53 AM 75.9 °F - 72.0 °F 87% 30.14 in 2.0 mi Calm Calm - N/A   Clear
9:14 AM 78.8 °F - 71.6 °F 78% 30.15 in 3.0 mi Calm Calm - N/A   Haze
9:53 AM 81.0 °F 85.2 °F 72.0 °F 74% 30.14 in 4.0 mi Calm Calm - N/A   Haze
10:53 AM 84.9 °F 91.4 °F 73.0 °F 67% 30.12 in 5.0 mi West 3.5 mph - N/A   Haze
11:53 AM 90.0 °F 97.9 °F 73.0 °F 57% 30.11 in 5.0 mi Calm Calm - N/A   Haze
12:53 PM 90.0 °F 97.9 °F 73.0 °F 57% 30.09 in 6.0 mi WSW 4.6 mph - N/A   Haze
1:53 PM 93.0 °F 100.1 °F 71.1 °F 49% 30.06 in 7.0 mi South 10.4 mph - N/A   Scattered Clouds
2:53 PM 91.9 °F 99.5 °F 72.0 °F 52% 30.03 in 8.0 mi SSW 10.4 mph 16.1 mph N/A   Partly Cloudy
3:53 PM 91.9 °F 100.7 °F 73.0 °F 54% 30.01 in 7.0 mi South 12.7 mph - N/A   Mostly Cloudy
4:53 PM 90.0 °F 96.4 °F 71.1 °F 54% 30.00 in 9.0 mi South 12.7 mph 18.4 mph N/A   Clear
5:53 PM 88.0 °F 92.9 °F 70.0 °F 55% 30.01 in 9.0 mi SSW 10.4 mph - N/A   Clear
6:53 PM 84.9 °F 88.8 °F 69.1 °F 59% 30.01 in 10.0 mi South 10.4 mph - N/A   Clear
7:53 PM 82.9 °F 87.0 °F 70.0 °F 65% 30.02 in 10.0 mi South 8.1 mph - N/A   Clear
8:53 PM 82.0 °F 85.9 °F 70.0 °F 67% 30.04 in 10.0 mi South 8.1 mph - N/A   Partly Cloudy
9:53 PM 80.1 °F 83.2 °F 70.0 °F 71% 30.02 in 9.0 mi Calm Calm - N/A   Scattered Clouds
10:53 PM 79.0 °F - 71.1 °F 77% 30.02 in 8.0 mi WSW 4.6 mph - N/A   Mostly Cloudy
11:53 PM 77.0 °F - 70.0 °F 79% 29.99 in 8.0 mi South 4.6 mph - N/A   Partly Cloudy